| time (UTC) | temp F | wind direction | speed knots | gust knots | rain 1hr in | rain 24hr in | rain mn in | humidity % | barometer mb |
| 20260504234517 | 41 | 274 | 2.6 | 10.4 | 0.00 | 0.29 | 0.19 | 87 | 1007.7 |
| 20260504234013 | 41 | 4 | 3.5 | 10.4 | 0.00 | 0.29 | 0.19 | 87 | 1007.7 |
| 20260504232510 | 41 | 149 | 3.5 | 9.6 | 0.00 | 0.29 | 0.19 | 86 | 1007.6 |
| 20260504232018 | 42 | 290 | 3.5 | 9.6 | 0.00 | 0.29 | 0.19 | 86 | 1007.4 |
| 20260504231521 | 42 | 269 | 3.5 | 12.2 | 0.00 | 0.29 | 0.19 | 85 | 1007.5 |
| 20260504231018 | 42 | 277 | 4.3 | 12.2 | 0.00 | 0.29 | 0.19 | 85 | 1007.3 |
| 20260504230511 | 42 | 233 | 2.6 | 9.6 | 0.00 | 0.29 | 0.19 | 84 | 1007.4 |
| 20260504230022 | 42 | 282 | 4.3 | 12.2 | 0.00 | 0.29 | 0.19 | 84 | 1007.2 |
| 20260504225510 | 42 | 113 | 3.5 | 12.2 | 0.00 | 0.32 | 0.19 | 83 | 1007.4 |
| 20260504223517 | 42 | 203 | 1.7 | 9.6 | 0.00 | 0.32 | 0.19 | 83 | 1007.2 |
| 20260504223010 | 42 | 201 | 4.3 | 9.6 | 0.00 | 0.32 | 0.19 | 83 | 1007.1 |
| 20260504222519 | 42 | 34 | 1.7 | 9.6 | 0.00 | 0.32 | 0.19 | 83 | 1007.0 |
| 20260504222010 | 42 | 235 | 3.5 | 11.3 | 0.00 | 0.32 | 0.19 | 82 | 1006.9 |
| 20260504221518 | 42 | 280 | 3.5 | 12.2 | 0.00 | 0.32 | 0.19 | 82 | 1006.8 |
| 20260504221010 | 42 | 309 | 2.6 | 12.2 | 0.00 | 0.32 | 0.19 | 82 | 1006.7 |
| 20260504220517 | 42 | 39 | 4.3 | 11.3 | 0.00 | 0.32 | 0.19 | 81 | 1006.6 |
| 20260504220015 | 43 | 231 | 3.5 | 9.6 | 0.00 | 0.32 | 0.19 | 81 | 1006.6 |
| 20260504214017 | 44 | 208 | 3.5 | 13.0 | 0.00 | 0.35 | 0.19 | 78 | 1006.3 |
| 20260504213510 | 44 | 273 | 3.5 | 13.0 | 0.00 | 0.35 | 0.19 | 77 | 1006.4 |
| 20260504213022 | 44 | 231 | 5.2 | 13.9 | 0.00 | 0.35 | 0.19 | 77 | 1006.5 |
| 20260504212511 | 45 | 127 | 4.3 | 13.9 | 0.00 | 0.35 | 0.19 | 76 | 1006.5 |
| 20260504210518 | 45 | 290 | 3.5 | 19.1 | 0.00 | 0.35 | 0.19 | 76 | 1006.3 |
| 20260504210010 | 45 | 205 | 5.2 | 19.1 | 0.00 | 0.35 | 0.19 | 75 | 1006.3 |
| 20260504205517 | 45 | 357 | 3.5 | 12.2 | 0.00 | 0.41 | 0.19 | 75 | 1006.2 |
| 20260504205015 | 46 | 209 | 5.2 | 14.8 | 0.00 | 0.41 | 0.19 | 75 | 1006.2 |
| 20260504204518 | 45 | 305 | 6.1 | 14.8 | 0.00 | 0.41 | 0.19 | 75 | 1006.1 |
| 20260504204021 | 46 | 295 | 5.2 | 12.2 | 0.00 | 0.41 | 0.19 | 74 | 1006.0 |
| 20260504202010 | 47 | 270 | 5.2 | 13.0 | 0.00 | 0.41 | 0.19 | 72 | 1005.8 |
| 20260504201523 | 47 | 249 | 4.3 | 16.5 | 0.00 | 0.41 | 0.19 | 71 | 1005.7 |
| 20260504201010 | 48 | 276 | 6.1 | 16.5 | 0.00 | 0.41 | 0.19 | 70 | 1005.5 |
| 20260504200518 | 48 | 189 | 4.3 | 12.2 | 0.00 | 0.41 | 0.19 | 70 | 1005.4 |
| 20260504200011 | 48 | 169 | 3.5 | 12.2 | 0.00 | 0.41 | 0.19 | 69 | 1005.3 |
| 20260504195518 | 48 | 278 | 4.3 | 12.2 | 0.00 | 0.55 | 0.19 | 69 | 1005.3 |
| 20260504195021 | 48 | 223 | 3.5 | 14.8 | 0.00 | 0.55 | 0.19 | 68 | 1005.2 |
| 20260504194518 | 49 | 225 | 6.1 | 14.8 | 0.00 | 0.55 | 0.19 | 67 | 1005.0 |
| 20260504194011 | 49 | 334 | 3.5 | 10.4 | 0.00 | 0.55 | 0.19 | 67 | 1005.0 |
| 20260504193522 | 49 | 13 | 3.5 | 12.2 | 0.00 | 0.55 | 0.19 | 69 | 1004.9 |
| 20260504193011 | 49 | 224 | 5.2 | 12.2 | 0.00 | 0.55 | 0.19 | 68 | 1004.9 |
| 20260504191017 | 49 | 263 | 4.3 | 15.6 | 0.00 | 0.55 | 0.19 | 69 | 1004.8 |
| 20260504190521 | 49 | 251 | 5.2 | 13.0 | 0.00 | 0.55 | 0.19 | 67 | 1004.7 |
| 20260504190023 | 49 | 236 | 5.2 | 13.9 | 0.00 | 0.55 | 0.19 | 67 | 1004.7 |
| 20260504185521 | 50 | 215 | 5.2 | 12.2 | 0.00 | 0.64 | 0.19 | 66 | 1004.7 |
| 20260504185017 | 50 | 217 | 4.3 | 13.9 | 0.00 | 0.64 | 0.19 | 68 | 1004.6 |
| 20260504184510 | 48 | 200 | 5.2 | 13.9 | 0.00 | 0.64 | 0.19 | 67 | 1004.5 |
| 20260504183010 | 50 | 27 | 4.3 | 14.8 | 0.00 | 0.64 | 0.19 | 64 | 1004.5 |
| 20260504182518 | 51 | 270 | 6.1 | 14.8 | 0.00 | 0.64 | 0.19 | 62 | 1004.4 |
| 20260504182010 | 52 | 241 | 8.7 | 14.8 | 0.00 | 0.64 | 0.19 | 56 | 1004.3 |
| 20260504181518 | 55 | 248 | 5.2 | 15.6 | 0.00 | 0.64 | 0.19 | 54 | 1004.2 |
| 20260504181021 | 59 | 255 | 7.0 | 15.6 | 0.00 | 0.64 | 0.19 | 43 | 1004.4 |
| 20260504180529 | 60 | 243 | 4.3 | 13.0 | 0.00 | 0.64 | 0.19 | 37 | 1004.1 |
| 20260504180010 | 60 | 278 | 6.1 | 16.5 | 0.00 | 0.64 | 0.19 | 36 | 1004.1 |
| 20260504174011 | 59 | 205 | 3.5 | 13.9 | 0.00 | 0.73 | 0.19 | 37 | 1004.0 |
| 20260504173518 | 58 | 307 | 6.1 | 15.6 | 0.00 | 0.73 | 0.19 | 37 | 1004.1 |
| 20260504173022 | 58 | 311 | 6.1 | 16.5 | 0.00 | 0.73 | 0.19 | 37 | 1004.1 |
| 20260504172518 | 58 | 169 | 7.8 | 16.5 | 0.00 | 0.73 | 0.19 | 36 | 1004.1 |
| 20260504172011 | 58 | 278 | 4.3 | 15.6 | 0.00 | 0.73 | 0.19 | 38 | 1004.1 |
| 20260504171519 | 57 | 270 | 5.2 | 15.6 | 0.00 | 0.73 | 0.19 | 38 | 1003.9 |
| 20260504171011 | 57 | 281 | 6.1 | 23.5 | 0.00 | 0.73 | 0.19 | 37 | 1003.9 |
| 20260504151019 | 54 | 278 | 4.3 | 20.0 | 0.00 | 0.82 | 0.19 | 62 | 1003.4 |
| 20260504150516 | 53 | 321 | 6.1 | 20.0 | 0.00 | 0.82 | 0.19 | 63 | 1003.2 |
| 20260504141019 | 50 | 315 | 5.2 | 13.0 | 0.00 | 0.82 | 0.19 | 72 | 1002.8 |
| 20260504140511 | 50 | 340 | 4.3 | 12.2 | 0.00 | 0.82 | 0.19 | 73 | 1002.8 |
| 20260504130511 | 44 | 338 | 5.2 | 12.2 | 0.00 | 0.82 | 0.19 | 84 | 1002.0 |
| 20260504110511 | 41 | 240 | 4.3 | 11.3 | 0.00 | 0.82 | 0.19 | 93 | 999.4 |
| 20260504100512 | 40 | 228 | 5.2 | 14.8 | 0.00 | 0.82 | 0.19 | 95 | 997.7 |
| 20260504081520 | 37 | 270 | 5.2 | 14.8 | 0.01 | 0.81 | 0.18 | 95 | 995.0 |
| 20260504081019 | 37 | 218 | 4.3 | 14.8 | 0.01 | 0.81 | 0.18 | 95 | 994.9 |
| 20260504080511 | 37 | 295 | 5.2 | 14.8 | 0.01 | 0.81 | 0.18 | 95 | 994.7 |
| 20260504050517 | 35 | 300 | 4.3 | 11.3 | 0.02 | 0.67 | 0.04 | 94 | 989.2 |
| 20260504050020 | 35 | 239 | 3.5 | 14.8 | 0.01 | 0.66 | 0.03 | 94 | 989.1 |
| 20260504045518 | 35 | 219 | 4.3 | 14.8 | 0.01 | 0.66 | 0.03 | 94 | 988.8 |
| 20260504045011 | 35 | 260 | 2.6 | 11.3 | 0.01 | 0.66 | 0.03 | 94 | 988.6 |
| 20260504044519 | 35 | 277 | 5.2 | 11.3 | 0.01 | 0.66 | 0.03 | 94 | 988.5 |
| 20260504044018 | 35 | 237 | 3.5 | 13.0 | 0.01 | 0.66 | 0.03 | 94 | 988.4 |
| 20260504043523 | 35 | 316 | 6.1 | 13.0 | 0.02 | 0.66 | 0.03 | 94 | 988.1 |
| 20260504043019 | 35 | 259 | 5.2 | 15.6 | 0.02 | 0.66 | 0.03 | 94 | 988.0 |
| 20260504042512 | 35 | 260 | 5.2 | 15.6 | 0.02 | 0.66 | 0.03 | 94 | 987.8 |
| 20260504042024 | 35 | 269 | 5.2 | 16.5 | 0.01 | 0.65 | 0.02 | 94 | 987.8 |
| 20260504041518 | 35 | 232 | 4.3 | 15.6 | 0.02 | 0.65 | 0.02 | 94 | 987.5 |
| 20260504041012 | 35 | 280 | 3.5 | 13.9 | 0.02 | 0.65 | 0.02 | 94 | 987.3 |
| 20260504040519 | 35 | 269 | 5.2 | 13.9 | 0.02 | 0.65 | 0.02 | 94 | 987.2 |
| 20260504040018 | 36 | 263 | 5.2 | 13.9 | 0.02 | 0.65 | 0.02 | 94 | 987.2 |
| 20260504035523 | 36 | 243 | 5.2 | 13.9 | 0.02 | 0.65 | 0.02 | 94 | 987.0 |
| 20260504035030 | 36 | 272 | 4.3 | 13.9 | 0.02 | 0.65 | 0.02 | 94 | 986.7 |
| 20260504034519 | 36 | 276 | 4.3 | 12.2 | 0.02 | 0.65 | 0.02 | 94 | 986.4 |
| 20260504034012 | 37 | 250 | 4.3 | 12.2 | 0.01 | 0.64 | 0.01 | 94 | 986.2 |
| 20260504033519 | 37 | 229 | 3.5 | 13.9 | 0.01 | 0.64 | 0.01 | 94 | 986.1 |
| 20260504033019 | 37 | 252 | 6.1 | 13.9 | 0.01 | 0.64 | 0.01 | 94 | 985.9 |
| 20260504032513 | 37 | 323 | 3.5 | 11.3 | 0.01 | 0.64 | 0.01 | 94 | 985.7 |
| 20260504032030 | 38 | 262 | 5.2 | 11.3 | 0.00 | 0.63 | 0.00 | 94 | 985.3 |
| 20260504031518 | 38 | 231 | 4.3 | 11.3 | 0.00 | 0.63 | 0.00 | 94 | 985.2 |
| 20260504031011 | 38 | 288 | 4.3 | 12.2 | 0.00 | 0.63 | 0.00 | 94 | 985.0 |
| 20260504030519 | 38 | 295 | 4.3 | 12.2 | 0.00 | 0.63 | 0.00 | 94 | 984.8 |
| 20260504030019 | 39 | 281 | 3.5 | 10.4 | 0.00 | 0.63 | 0.00 | 94 | 984.6 |
| 20260504025512 | 39 | 289 | 4.3 | 10.4 | 0.00 | 0.63 | 0.63 | 94 | 984.3 |
| 20260504025019 | 39 | 300 | 4.3 | 12.2 | 0.01 | 0.63 | 0.63 | 94 | 984.0 |
| 20260504024512 | 39 | 286 | 5.2 | 15.6 | 0.01 | 0.63 | 0.63 | 94 | 983.7 |
| 20260504024019 | 39 | 320 | 4.3 | 15.6 | 0.01 | 0.63 | 0.63 | 94 | 983.4 |
| 20260504023512 | 39 | 331 | 6.1 | 15.6 | 0.02 | 0.63 | 0.63 | 94 | 983.0 |
| 20260504023019 | 39 | 266 | 7.0 | 16.5 | 0.02 | 0.63 | 0.63 | 94 | 982.8 |
| 20260504022529 | 39 | 316 | 5.2 | 16.5 | 0.02 | 0.63 | 0.63 | 94 | 982.6 |
| 20260504022012 | 39 | 294 | 8.7 | 16.5 | 0.02 | 0.63 | 0.63 | 94 | 982.2 |
| 20260504021530 | 39 | 325 | 7.0 | 14.8 | 0.02 | 0.63 | 0.63 | 94 | 982.0 |
| 20260504021019 | 39 | 302 | 6.1 | 23.5 | 0.03 | 0.63 | 0.63 | 95 | 981.7 |
| 20260504020523 | 39 | 300 | 7.8 | 23.5 | 0.03 | 0.63 | 0.63 | 94 | 981.6 |
| 20260504020019 | 39 | 269 | 8.7 | 17.4 | 0.03 | 0.63 | 0.63 | 94 | 981.4 |
| 20260504015518 | 39 | 302 | 8.7 | 18.2 | 0.03 | 0.62 | 0.62 | 94 | 981.4 |
| 20260504015012 | 39 | 317 | 11.3 | 18.2 | 0.03 | 0.62 | 0.62 | 94 | 981.1 |
| 20260504014531 | 39 | 310 | 9.6 | 18.2 | 0.03 | 0.62 | 0.62 | 94 | 981.2 |
| 20260504014019 | 39 | 299 | 9.6 | 18.2 | 0.03 | 0.62 | 0.62 | 94 | 981.0 |
| 20260504013512 | 39 | 338 | 9.6 | 16.5 | 0.02 | 0.61 | 0.61 | 94 | 980.8 |
| 20260504013019 | 39 | 323 | 9.6 | 18.2 | 0.02 | 0.61 | 0.61 | 94 | 980.4 |
| 20260504012530 | 39 | 349 | 10.4 | 22.6 | 0.02 | 0.61 | 0.61 | 94 | 980.1 |
| 20260504012011 | 39 | 341 | 11.3 | 20.9 | 0.03 | 0.61 | 0.61 | 94 | 980.0 |
| 20260504011520 | 40 | 328 | 7.8 | 19.1 | 0.03 | 0.61 | 0.61 | 94 | 979.6 |
| 20260504011024 | 40 | 316 | 9.6 | 19.1 | 0.02 | 0.60 | 0.60 | 94 | 979.5 |
| 20260504010511 | 40 | 345 | 12.2 | 19.1 | 0.03 | 0.60 | 0.60 | 94 | 979.3 |
| 20260504010019 | 40 | 318 | 7.0 | 13.9 | 0.02 | 0.59 | 0.59 | 94 | 979.2 |
| 20260504005529 | 40 | 308 | 7.8 | 14.8 | 0.02 | 0.59 | 0.59 | 94 | 978.9 |
| 20260504005012 | 40 | 305 | 7.8 | 16.5 | 0.03 | 0.59 | 0.59 | 94 | 978.3 |
| 20260504004519 | 40 | 296 | 11.3 | 18.2 | 0.03 | 0.59 | 0.59 | 94 | 978.2 |
| 20260504004018 | 40 | 23 | 9.6 | 18.2 | 0.04 | 0.59 | 0.59 | 94 | 977.9 |
| 20260504003512 | 40 | 319 | 10.4 | 22.6 | 0.05 | 0.59 | 0.59 | 94 | 977.8 |
| 20260504003019 | 40 | 351 | 9.6 | 22.6 | 0.05 | 0.59 | 0.59 | 94 | 977.7 |
| 20260504002519 | 40 | 255 | 8.7 | 19.1 | 0.04 | 0.58 | 0.58 | 94 | 977.3 |
| 20260504002023 | 41 | 314 | 7.8 | 18.2 | 0.05 | 0.58 | 0.58 | 94 | 977.3 |
| 20260504001531 | 42 | 314 | 5.2 | 13.0 | 0.05 | 0.58 | 0.58 | 95 | 977.2 |
| 20260504001019 | 42 | 359 | 6.1 | 13.0 | 0.04 | 0.57 | 0.57 | 95 | 977.2 |
| 20260504000512 | 42 | 338 | 3.5 | 11.3 | 0.04 | 0.57 | 0.57 | 95 | 977.2 |
| 20260504000020 | 42 | 61 | 5.2 | 11.3 | 0.04 | 0.57 | 0.57 | 95 | 977.4 |
| 20260503235518 | 42 | 45 | 5.2 | 14.8 | 0.03 | 0.56 | 0.56 | 95 | 977.1 |
| 20260503235012 | 42 | 79 | 7.0 | 14.8 | 0.03 | 0.56 | 0.56 | 95 | 977.5 |